Regional Weather Roundup
Issued by NWS Huntsville, AL

Home | Current Version | Previous Version | Text Only | Print | Product List | Glossary On
Versions: 1 2 3 4 5 6 7 8 9 10 11 12 13 14 15 16 17 18 19 20 21 22 23 24 25 26 27 28 29 30 31 32 33 34 35 36 37 38 39 40 41 42 43 44 45 46 47 48 49 50
000
ASUS44 KHUN 010710
RWRHUN

WEATHER ROUNDUP FOR THE TENNESSEE VALLEY
NATIONAL WEATHER SERVICE HUNTSVILLE AL
200 AM CDT WED JUN 01 2016

ALZ001>004-010800-
NORTHWEST ALABAMA

CITY           SKY/WX    TMP DP  RH WIND       PRES   REMARKS
SHOALS AIRPORT CLEAR     69  64  84 SW5       29.97R
$$

ALZ005>007-016-010800-
NORTH CENTRAL ALABAMA

CITY           SKY/WX    TMP DP  RH WIND       PRES   REMARKS
DECATUR AP     CLEAR     67  65  93 CALM      29.96R
HUNTSVILLE AP  CLEAR     70  64  81 CALM      29.95S
HUN NWS/UAH      N/A     73  64  73 VRB2        N/A
MERIDIANVILLE  HAZE      68  63  83 CALM      29.96S VSB 1/4
REDSTONE ARSN  CLEAR     69  66  88 CALM      29.95R
VINEMONT AP    FAIR      64  63  97 CALM      29.99R
$$

ALZ008>010-010800-
NORTHEAST ALABAMA

CITY           SKY/WX    TMP DP  RH WIND       PRES   REMARKS
FORT PAYNE     CLEAR     64  59  82 CALM      29.96R
SCOTTSBORO AP  CLEAR     66  66 100 CALM      29.96R
VALLEY HEAD      N/A     63 N/A N/A MISG        N/A
$$

TNZ076-096-097-010800-
SOUTHEASTERN MIDDLE TENNESSEE

CITY           SKY/WX    TMP DP  RH WIND       PRES   REMARKS
TULLAHOMA      CLEAR     66  66 100 CALM      29.98S
WINCHESTER     CLEAR     66  63  88 CALM      29.97R
$$

...SURROUNDING SITES...

CITY           SKY/WX    TMP DP  RH WIND       PRES   REMARKS
ATLANTA        PTCLDY    77  57  50 SE5       29.96F
ANNISTON       CLEAR     67  63  87 W6        29.96R
BIRMINGHAM     PTCLDY    69  67  93 CALM      29.99R
CHATTANOOGA    CLEAR     71  63  75 CALM      29.96S
DALTON         CLEAR     66  64  94 CALM      29.96S
GADSDEN        CLEAR     67  66  97 CALM      29.96R
GOLDEN TRNGL   CLOUDY    75  66  73 CALM      29.93F
HALEYVILLE     FAIR      66  64  93 CALM      30.00R
JACKSON TN     CLEAR     66  65  96 CALM      29.93F
MEMPHIS        MOCLDY    75  69  81 S3        29.92F
NASHVILLE      PTCLDY    70  63  78 CALM      29.95R
OXFORD MS      FAIR      70  66  88 S6        29.96S
ROME           CLEAR     69  63  81 N3        29.95S
SAVANNAH       MOCLDY    66  66 100 CALM      29.94F
TUPELO         CLEAR     71  67  87 CALM      29.93F
TUSCALOOSA     CLOUDY    67  67 100 CALM      29.95S
$$

...GULF COAST WEATHER...

CITY           SKY/WX    TMP DP  RH WIND       PRES   REMARKS
GULFPORT       CLEAR     73  69  87 CALM      29.92F
PASCAGOULA     CLEAR     68  67  96 CALM      29.93F
MOBILE         PTCLDY    69  69 100 CALM      29.95F
GULF SHORES    MOSUNNY   69  69 100 CALM      29.94S
DESTIN         PTCLDY    81  75  82 VRB3      29.93F
PANAMA CITY    CLEAR     78  73  85 W5        29.94F
APPALACHICOLA  CLEAR     72  72 100 CALM      29.95F
$$




USA.gov is the U.S. government's official web portal to all federal, state and local government web resources and services.